Back to catalog

TITAN 3C TRANSTAGE DEB

AliveLEO
NORAD 1684·DEBRIS·🇺🇸 United States

Launched Oct 15, 1965 from Cape Canaveral Space Force Station

Loading…

Next Passes (next 24 hours)

TLE

FreshSource: Space-Track

Epoch: Sep 14, 2026, 09:42 UTC

1 01684U 65082AX  26257.40476186  .00001277  00000-0  32664-3 0  9999
2 01684  32.2143  27.8816 0165668 121.9627 239.7235 14.40524365155419

Track TITAN 3C TRANSTAGE DEB in real time with AllMySat

Download on the App Store